Weather History for KCHO - January, 2011

Change the Weather History Date:

Wednesday, January 26, 2011

  Actual Average Record
Temperature  
Mean Temperature 38 °F 36 °F  
Max Temperature 41 °F 45 °F 75 °F (1967)
Min Temperature 34 °F 26 °F 5 °F (1987)
Degree Days  
Heating Degree Days 27 29  
Month to date heating degree days 799 779  
Since 1 July heating degree days 2491 2515  
Cooling Degree Days 0 0  
Month to date cooling degree days 0 0  
Year to date cooling degree days 0 0  
Moisture  
Dew Point 32 °F    
Average Humidity 75    
Maximum Humidity 96    
Minimum Humidity 54    
Precipitation  
Precipitation 0.79 in 0.09 in 0.79 in (2011)
Month to date precipitation 0.87 2.35  
Year to date precipitation 0.87 2.35  
Sea Level Pressure  
Sea Level Pressure 29.71 in    
Wind  
Wind Speed 6 mph (North)    
Max Wind Speed 17 mph    
Max Gust Speed 21 mph    
Visibility 4 miles    
Events Fog , Rain , Snow    
T = Trace of Precipitation, MM = Missing Value Source: NWS Daily Summary

Daily Weather History Graph

Daily Weather History Graph

Search for Another Location

Airport or City:

Trip Planner

Search our weather history database for the weather conditions in past years. The results will help you decide how hot, cold, wet, or windy it might be!

Date:

Astronomy

Jan. 26, 2011 Rise Set
Actual Time 7:23 AM EST 5:29 PM EST
Civil Twilight 6:55 AM EST 5:57 PM EST
Nautical Twilight 6:23 AM EST 6:29 PM EST
Astronomical Twilight 5:52 AM EST 7:00 PM EST
Moon 12:40 AM EST (1/26) 11:07 AM EST (1/26)
Length of Visible Light 11h 02m
Length of Day
10h 06m
Waning Gibbous, 48% of the Moon is Illuminated
Jan 26
Waning Gibbous
Feb 2
New
Feb 11
First Quarter
Feb 18
Full
Feb 24
Last Quarter

Hourly Weather History & Observations

Time (EST) Temp. Windchill Dew Point Humidity Pressure Visibility Wind Dir Wind Speed Gust Speed Precip Events Conditions
12:53 AM 41.0 °F 38.0 °F 24.1 °F 51% 29.99 in 10.0 mi NE 4.6 mph - 0.00 in   Overcast
1:53 AM 39.9 °F 35.8 °F 24.1 °F 53% 29.96 in 10.0 mi NE 5.8 mph - N/A   Overcast
2:53 AM 39.0 °F 34.0 °F 25.0 °F 57% 29.96 in 10.0 mi NE 6.9 mph - N/A   Overcast
3:03 AM 39.2 °F 35.0 °F 26.6 °F 61% 29.96 in 10.0 mi NE 5.8 mph - N/A   Overcast
3:53 AM 35.1 °F 32.2 °F 30.9 °F 85% 29.94 in 3.0 mi Variable 3.5 mph - 0.05 in Rain Light Rain
4:12 AM 35.6 °F 30.7 °F 32.0 °F 87% 29.93 in 3.0 mi North 5.8 mph - 0.02 in Rain Light Rain
4:24 AM 35.6 °F 30.7 °F 30.2 °F 81% 29.93 in 2.5 mi NNE 5.8 mph - 0.03 in Rain Light Rain
4:39 AM 33.8 °F 30.8 °F 30.2 °F 87% 29.93 in 1.8 mi NNE 3.5 mph - 0.04 in Rain Light Rain
4:53 AM 34.0 °F 31.0 °F 32.0 °F 92% 29.93 in 1.8 mi NNE 3.5 mph - 0.05 in Rain Light Rain
5:48 AM 35.6 °F 31.7 °F 32.0 °F 87% 29.89 in 2.0 mi NNE 4.6 mph - 0.01 in Rain Light Rain
5:53 AM 35.1 °F 30.1 °F 32.0 °F 89% 29.90 in 2.0 mi NNE 5.8 mph - 0.01 in   Overcast
7:43 AM 33.8 °F 29.6 °F 32.0 °F 93% 29.86 in 2.0 mi Variable 4.6 mph - 0.01 in   Overcast
7:53 AM 35.1 °F 30.1 °F 32.0 °F 89% 29.87 in 2.0 mi Variable 5.8 mph - 0.01 in   Overcast
8:11 AM 35.6 °F 31.7 °F 32.0 °F 87% 29.85 in 1.5 mi Variable 4.6 mph - 0.00 in Rain Light Rain
8:44 AM 35.6 °F 26.6 °F 32.0 °F 87% 29.83 in 2.5 mi NNE 13.8 mph - 0.00 in   Overcast
8:53 AM 35.1 °F 25.9 °F 33.1 °F 92% 29.83 in 2.5 mi NNE 13.8 mph - 0.00 in   Overcast
9:53 AM 36.0 °F 27.1 °F 33.1 °F 89% 29.77 in 2.5 mi NNE 13.8 mph - N/A   Overcast
10:53 AM 36.0 °F 26.0 °F 33.1 °F 89% 29.74 in 2.5 mi NE 17.3 mph - N/A   Overcast
11:53 AM 37.0 °F 28.5 °F 34.0 °F 89% 29.66 in 2.5 mi NNE 13.8 mph 20.7 mph 0.01 in   Overcast
12:53 PM 36.0 °F 27.1 °F 33.1 °F 89% 29.60 in 2.5 mi NNE 13.8 mph 20.7 mph 0.11 in Rain Rain
1:10 PM 35.6 °F 30.7 °F 33.8 °F 93% 29.59 in 3.0 mi NNE 5.8 mph - 0.01 in Rain Light Rain
1:24 PM 35.6 °F 31.7 °F 33.8 °F 93% 29.60 in 1.8 mi North 4.6 mph - 0.03 in Rain Rain
1:39 PM 35.6 °F 32.8 °F 33.8 °F 93% 29.59 in 2.5 mi Variable 3.5 mph - 0.06 in Snow Light Snow
1:53 PM 35.1 °F 32.2 °F 33.1 °F 92% 29.59 in 1.5 mi NNE 3.5 mph - 0.09 in Snow Light Snow
1:56 PM 35.6 °F 32.8 °F 33.8 °F 93% 29.58 in 2.5 mi NNE 3.5 mph - 0.01 in Rain Light Rain
2:13 PM 35.6 °F 30.7 °F 33.8 °F 93% 29.55 in 1.8 mi North 5.8 mph - 0.04 in Rain Rain
2:20 PM 35.6 °F 31.7 °F 33.8 °F 93% 29.55 in 2.5 mi Variable 4.6 mph - 0.05 in Rain Light Rain
2:24 PM 35.6 °F 31.7 °F 33.8 °F 93% 29.55 in 3.0 mi North 4.6 mph - 0.05 in Rain Light Rain
2:31 PM 35.6 °F - 33.8 °F 93% 29.57 in 4.0 mi Calm Calm - 0.05 in Rain Light Rain
2:46 PM 35.6 °F - 33.8 °F 93% 29.58 in 3.0 mi Calm Calm - 0.07 in Snow Light Snow
2:50 PM 35.6 °F - 33.8 °F 93% 29.58 in 1.5 mi Calm Calm - 0.09 in Snow Light Snow
2:53 PM 35.1 °F - 33.1 °F 92% 29.58 in 1.0 mi Calm Calm - 0.09 in Snow Light Snow
3:12 PM 33.8 °F 30.8 °F 32.0 °F 93% 29.56 in 0.5 mi NNE 3.5 mph - 0.05 in Fog , Snow Snow
3:30 PM 33.8 °F 30.8 °F 32.0 °F 93% 29.56 in 0.5 mi North 3.5 mph - 0.09 in Fog , Snow Snow
3:44 PM 33.8 °F - 32.0 °F 93% 29.56 in 1.5 mi Calm Calm - 0.10 in Snow Light Snow
3:53 PM 34.0 °F 31.0 °F 32.0 °F 92% 29.57 in 1.5 mi NW 3.5 mph - 0.10 in Snow Light Snow
3:56 PM 33.8 °F - 32.0 °F 93% 29.56 in 1.2 mi Calm Calm - 0.00 in Snow Light Snow
4:44 PM 33.8 °F 29.6 °F 32.0 °F 93% 29.58 in 0.5 mi Variable 4.6 mph - 0.06 in Fog , Snow Snow
4:53 PM 34.0 °F 31.0 °F 32.0 °F 92% 29.59 in 0.5 mi WNW 3.5 mph - 0.07 in Fog , Snow Snow
5:12 PM 33.8 °F 27.7 °F 32.0 °F 93% 29.59 in 0.2 mi Variable 6.9 mph - 0.03 in Fog , Snow Snow
5:22 PM 33.8 °F 28.6 °F 32.0 °F 93% 29.60 in 0.5 mi NW 5.8 mph - 0.05 in Fog , Snow Snow
5:53 PM 34.0 °F 25.5 °F 32.0 °F 92% 29.62 in 0.2 mi NNW 11.5 mph - 0.12 in Fog , Snow Heavy Snow
6:01 PM 33.8 °F 27.7 °F 32.0 °F 93% 29.61 in 0.8 mi NW 6.9 mph - 0.01 in Snow Light Snow
6:45 PM 33.8 °F - 32.0 °F 93% 29.63 in 1.0 mi Calm Calm - 0.07 in Snow Light Snow
6:51 PM 33.8 °F - 32.0 °F 93% 29.64 in 2.0 mi Calm Calm - 0.07 in Snow Light Snow
6:52 PM 34.0 °F - 32.0 °F 92% 29.65 in 2.5 mi Calm Calm - 0.07 in Snow Light Snow
6:59 PM 33.8 °F - 32.0 °F 93% 29.64 in 8.0 mi Calm Calm - 0.00 in   Overcast
7:20 PM 33.8 °F - 32.0 °F 93% 29.65 in 1.8 mi Calm Calm - 0.00 in Snow Light Snow
7:27 PM 33.8 °F - 30.2 °F 87% 29.66 in 2.5 mi Calm Calm - 0.00 in Snow Light Snow
7:37 PM 35.6 °F 30.7 °F 30.2 °F 81% 29.67 in 7.0 mi Variable 5.8 mph - 0.00 in Snow Light Snow
7:53 PM 35.1 °F - 30.9 °F 85% 29.68 in 10.0 mi Calm Calm - 0.00 in   Overcast
8:53 PM 36.0 °F 33.3 °F 30.9 °F 82% 29.72 in 10.0 mi SSW 3.5 mph - N/A   Overcast
9:02 PM 35.6 °F - 30.2 °F 81% 29.71 in 10.0 mi Calm Calm - N/A   Overcast
9:53 PM 35.1 °F 32.2 °F 30.9 °F 85% 29.74 in 10.0 mi NW 3.5 mph - N/A   Mostly Cloudy
10:04 PM 35.6 °F 30.7 °F 30.2 °F 81% 29.74 in 10.0 mi Variable 5.8 mph - N/A   Mostly Cloudy
10:53 PM 36.0 °F 33.3 °F 30.9 °F 82% 29.77 in 7.0 mi Variable 3.5 mph - N/A   Overcast
11:53 PM 36.0 °F - 30.9 °F 82% 29.78 in 10.0 mi Calm Calm - N/A   Overcast